sat.trackr.live / text

‹ back to catalog

STARLINK-35082

NORAD 65392 · 2025-191P

PAYLOAD ACTIVE UNKNOWN

§ Identity

Operator
Country
US
Launch date
2025-08-30
Launch site
AFWTR
Launch vehicle
Mass (kg)
RCS (m²)

Purposes: comms

External: N2YO · Heavens-Above · Gunter

§ Orbital elements

Epoch: 2026-05-25T02:40:10.348896Z

Period
95.64 min
Inclination
97.4520°
Eccentricity
0.0002165
Mean motion
15.05656902 rev/d
Perigee alt
548.0 km
Apogee alt
551.0 km
Semi-major
6,927.6 km
B*
2.3388e-4
RAAN
16.5572°
Arg perigee
87.5050°
Mean anomaly
272.6425°
Rev number
4,177

§ Raw data

STARLINK-350821 65392U 25191P   26145.11123089  .00003318  00000+0  23388-3 0  99972 65392  97.4520  16.5572 0002165  87.5050 272.6425 15.05656902 41775

JSON: /api/v1/satellites/65392 · /tle

For live sub-satellite position, see the globe view (requires WebGL).

§ Visibility from observer

Set your observer location to see the next 7 days of passes ≥ 10°. The values pass through the URL so the page stays shareable.

No JS? Fill the form by hand. The geolocation button needs JavaScript.